| time (UTC) | temp F | wind direction | speed MPH | gust MPH | rain 1hr in | rain 24hr in | rain mn in | humidity % | barometer mb |
| 20260507015107 | 60 | 158 | 0.0 | 0.0 | 0.00 | 0.00 | 0.30 | 8 | |
| 20260507014105 | 60 | 113 | 1.0 | 0.0 | 0.00 | 0.00 | 0.30 | 8 | |
| 20260507013108 | 60 | 135 | 1.0 | 0.0 | 0.00 | 0.00 | 0.30 | 8 | |
| 20260507012108 | 61 | 180 | 0.0 | 0.0 | 0.00 | 0.00 | 0.30 | 8 | |
| 20260507011107 | 61 | 113 | 2.0 | 0.0 | 0.00 | 0.00 | 0.30 | 8 | |
| 20260507010107 | 61 | 203 | 0.0 | 0.0 | 0.00 | 0.00 | 0.30 | 8 | |
| 20260507005106 | 61 | 113 | 1.0 | 0.0 | 0.00 | 0.00 | 0.29 | 8 | |
| 20260507004107 | 61 | 158 | 0.0 | 0.0 | 0.00 | 0.00 | 0.30 | 8 | |
| 20260507003106 | 61 | 113 | 1.0 | 0.0 | 0.00 | 0.00 | 0.29 | 8 | |
| 20260507002107 | 61 | 113 | 1.0 | 0.0 | 0.00 | 0.00 | 0.29 | 8 | |
| 20260507001106 | 61 | 180 | 0.0 | 0.0 | 0.00 | 0.00 | 0.29 | 8 | |
| 20260507000107 | 61 | 90 | 1.0 | 0.0 | 0.00 | 0.00 | 0.29 | 8 | |
| 20260506235108 | 61 | 180 | 1.0 | 0.0 | 0.00 | 0.00 | 0.29 | 8 | |
| 20260506234107 | 62 | 23 | 2.0 | 0.0 | 0.00 | 0.00 | 0.29 | 8 | |
| 20260506233108 | 62 | 113 | 0.0 | 0.0 | 0.00 | 0.00 | 0.29 | 8 | |
| 20260506232107 | 62 | 113 | 1.0 | 0.0 | 0.00 | 0.00 | 0.29 | 8 | |
| 20260506231107 | 62 | 113 | 0.0 | 0.0 | 0.00 | 0.00 | 0.29 | 8 | |
| 20260506230108 | 62 | 158 | 0.0 | 0.0 | 0.00 | 0.00 | 0.29 | 8 | |
| 20260506225107 | 62 | 203 | 0.0 | 0.0 | 0.00 | 0.00 | 0.29 | 8 | |
| 20260506224107 | 62 | 0 | 0.0 | 0.0 | 0.00 | 0.00 | 0.29 | 8 | |
| 20260506223108 | 61 | 225 | 0.0 | 0.0 | 0.00 | 0.00 | 0.29 | 8 | |
| 20260506222106 | 60 | 203 | 0.0 | 0.0 | 0.00 | 0.00 | 0.29 | 8 | |
| 20260506221107 | 60 | 158 | 2.0 | 0.0 | 0.00 | 0.00 | 0.29 | 8 | |
| 20260506220107 | 60 | 90 | 2.0 | 0.0 | 0.00 | 0.00 | 0.29 | 8 | |
| 20260506215107 | 60 | 158 | 3.0 | 0.0 | 0.00 | 0.00 | 0.29 | 8 | |
| 20260506214107 | 60 | 113 | 0.0 | 0.0 | 0.00 | 0.00 | 0.29 | 8 | |
| 20260506213107 | 60 | 158 | 2.0 | 0.0 | 0.00 | 0.00 | 0.29 | 8 | |
| 20260506212108 | 60 | 68 | 4.0 | 0.0 | 0.00 | 0.00 | 0.29 | 8 | |
| 20260506211107 | 61 | 113 | 1.0 | 0.0 | 0.00 | 0.00 | 0.29 | 8 | |
| 20260506210106 | 61 | 158 | 0.0 | 0.0 | 0.00 | 0.00 | 0.29 | 8 | |
| 20260506205107 | 61 | 158 | 1.0 | 0.0 | 0.00 | 0.00 | 0.29 | 8 | |
| 20260506204107 | 61 | 68 | 2.0 | 0.0 | 0.00 | 0.00 | 0.29 | 8 | |
| 20260506203108 | 61 | 113 | 2.0 | 0.0 | 0.00 | 0.00 | 0.29 | 8 | |
| 20260506202107 | 61 | 68 | 2.0 | 0.0 | 0.00 | 0.00 | 0.29 | 8 | |
| 20260506201107 | 61 | 225 | 3.0 | 0.0 | 0.00 | 0.00 | 0.29 | 8 | |
| 20260506200108 | 61 | 203 | 0.0 | 0.0 | 0.00 | 0.00 | 0.29 | 8 | |
| 20260506195108 | 62 | 90 | 2.0 | 0.0 | 0.00 | 0.00 | 0.29 | 8 | |
| 20260506194108 | 62 | 113 | 2.0 | 0.0 | 0.00 | 0.00 | 0.29 | 8 | |
| 20260506193106 | 63 | 158 | 1.0 | 0.0 | 0.00 | 0.00 | 0.29 | 8 | |
| 20260506192106 | 63 | 113 | 2.0 | 0.0 | 0.00 | 0.00 | 0.29 | 8 | |
| 20260506191107 | 64 | 158 | 2.0 | 0.0 | 0.00 | 0.00 | 0.29 | 8 | |
| 20260506190107 | 65 | 90 | 2.0 | 0.0 | 0.00 | 0.00 | 0.29 | 8 | |
| 20260506185107 | 65 | 90 | 4.0 | 0.0 | 0.00 | 0.00 | 0.29 | 8 | |
| 20260506184107 | 67 | 113 | 3.0 | 0.0 | 0.00 | 0.00 | 0.29 | 8 | |
| 20260506183107 | 68 | 113 | 2.0 | 0.0 | 0.00 | 0.00 | 0.29 | 8 | |
| 20260506182107 | 69 | 158 | 3.0 | 0.0 | 0.00 | 0.00 | 0.29 | 7 | |
| 20260506181107 | 71 | 158 | 5.0 | 0.0 | 0.00 | 0.00 | 0.29 | 7 | |
| 20260506180107 | 70 | 45 | 1.0 | 0.0 | 0.00 | 0.00 | 0.29 | 7 | |
| 20260506175108 | 71 | 113 | 3.0 | 0.0 | 0.00 | 0.00 | 0.29 | 7 | |
| 20260506174107 | 70 | 158 | 1.0 | 0.0 | 0.00 | 0.00 | 0.29 | 7 | |
| 20260506173108 | 69 | 180 | 1.0 | 0.0 | 0.00 | 0.00 | 0.29 | 8 | |
| 20260506172107 | 68 | 270 | 1.0 | 0.0 | 0.00 | 0.00 | 0.29 | 8 | |
| 20260506171107 | 68 | 225 | 2.0 | 0.0 | 0.00 | 0.00 | 0.29 | 8 | |
| 20260506170107 | 67 | 270 | 2.0 | 0.0 | 0.00 | 0.00 | 0.29 | 8 | |
| 20260506165107 | 66 | 203 | 2.0 | 0.0 | 0.00 | 0.00 | 0.29 | 8 | |
| 20260506164106 | 64 | 203 | 2.0 | 0.0 | 0.00 | 0.00 | 0.29 | 8 | |
| 20260506163107 | 62 | 180 | 0.0 | 0.0 | 0.00 | 0.00 | 0.29 | 9 | |
| 20260506162108 | 61 | 180 | 0.0 | 0.0 | 0.00 | 0.00 | 0.29 | 9 | |
| 20260506161108 | 60 | 248 | 0.0 | 0.0 | 0.00 | 0.00 | 0.29 | 9 | |
| 20260506160107 | 60 | 90 | 2.0 | 0.0 | 0.00 | 0.00 | 0.30 | 9 | |
| 20260506155108 | 60 | 113 | 3.0 | 0.0 | 0.00 | 0.00 | 0.30 | 9 | |
| 20260506154107 | 61 | 90 | 3.0 | 0.0 | 0.00 | 0.00 | 0.30 | 9 | |
| 20260506153108 | 61 | 90 | 4.0 | 0.0 | 0.00 | 0.00 | 0.30 | 9 | |
| 20260506152106 | 62 | 113 | 2.0 | 0.0 | 0.00 | 0.00 | 0.30 | 9 | |
| 20260506151107 | 62 | 180 | 1.0 | 0.0 | 0.00 | 0.00 | 0.29 | 9 | |
| 20260506150107 | 63 | 158 | 2.0 | 0.0 | 0.00 | 0.00 | 0.29 | 9 | |
| 20260506145109 | 64 | 113 | 2.0 | 0.0 | 0.00 | 0.00 | 0.29 | 9 | |
| 20260506144107 | 64 | 113 | 2.0 | 0.0 | 0.00 | 0.00 | 0.29 | 9 | |
| 20260506143107 | 65 | 113 | 3.0 | 0.0 | 0.00 | 0.00 | 0.29 | 9 | |
| 20260506142107 | 66 | 113 | 2.0 | 0.0 | 0.00 | 0.00 | 0.29 | 9 | |
| 20260506141108 | 67 | 180 | 3.0 | 0.0 | 0.00 | 0.00 | 0.29 | 9 | |
| 20260506140108 | 68 | 135 | 2.0 | 0.0 | 0.00 | 0.00 | 0.29 | 9 | |
| 20260506135107 | 69 | 158 | 0.0 | 0.0 | 0.00 | 0.00 | 0.29 | 8 | |
| 20260506134107 | 69 | 158 | 2.0 | 0.0 | 0.00 | 0.00 | 0.29 | 8 | |
| 20260506133108 | 71 | 135 | 2.0 | 0.0 | 0.00 | 0.00 | 0.29 | 9 | |
| 20260506132107 | 73 | 180 | 0.0 | 0.0 | 0.00 | 0.00 | 0.29 | 9 | |
| 20260506131107 | 73 | 180 | 0.0 | 0.0 | 0.00 | 0.00 | 0.29 | 9 | |
| 20260506130108 | 73 | 203 | 0.0 | 0.0 | 0.00 | 0.00 | 0.29 | 9 | |
| 20260506125108 | 73 | 203 | 0.0 | 0.0 | 0.00 | 0.00 | 0.29 | 9 | |
| 20260506124108 | 73 | 203 | 0.0 | 0.0 | 0.00 | 0.00 | 0.29 | 9 | |
| 20260506123107 | 73 | 225 | 0.0 | 0.0 | 0.00 | 0.00 | 0.29 | 9 | |
| 20260506122106 | 73 | 225 | 0.0 | 0.0 | 0.00 | 0.00 | 0.29 | 9 | |
| 20260506121106 | 73 | 225 | 0.0 | 0.0 | 0.00 | 0.00 | 0.29 | 9 | |
| 20260506120107 | 73 | 225 | 0.0 | 0.0 | 0.00 | 0.00 | 0.29 | 9 | |
| 20260506115107 | 73 | 225 | 0.0 | 0.0 | 0.00 | 0.00 | 0.29 | 9 | |
| 20260506114107 | 73 | 225 | 0.0 | 0.0 | 0.00 | 0.00 | 0.29 | 9 | |
| 20260506113107 | 74 | 225 | 0.0 | 0.0 | 0.00 | 0.00 | 0.29 | 9 | |
| 20260506112108 | 74 | 225 | 0.0 | 0.0 | 0.00 | 0.00 | 0.29 | 9 | |
| 20260506111107 | 74 | 225 | 0.0 | 0.0 | 0.00 | 0.00 | 0.29 | 9 | |
| 20260506110107 | 74 | 225 | 0.0 | 0.0 | 0.00 | 0.00 | 0.29 | 9 | |
| 20260506105107 | 74 | 248 | 0.0 | 0.0 | 0.00 | 0.00 | 0.29 | 9 | |
| 20260506104107 | 74 | 225 | 0.0 | 0.0 | 0.00 | 0.00 | 0.29 | 9 | |
| 20260506103107 | 74 | 248 | 0.0 | 0.0 | 0.00 | 0.00 | 0.29 | 9 | |
| 20260506102106 | 75 | 225 | 0.0 | 0.0 | 0.00 | 0.00 | 0.29 | 9 | |
| 20260506101108 | 75 | 248 | 0.0 | 0.0 | 0.00 | 0.00 | 0.29 | 9 | |
| 20260506100107 | 75 | 270 | 0.0 | 0.0 | 0.00 | 0.00 | 0.29 | 9 | |
| 20260506095108 | 75 | 293 | 1.0 | 0.0 | 0.00 | 0.00 | 0.29 | 9 | |
| 20260506094107 | 75 | 225 | 0.0 | 0.0 | 0.00 | 0.00 | 0.29 | 9 | |
| 20260506093108 | 75 | 225 | 0.0 | 0.0 | 0.00 | 0.00 | 0.29 | 9 | |
| 20260506092107 | 75 | 225 | 0.0 | 0.0 | 0.00 | 0.00 | 0.29 | 9 | |
| 20260506091107 | 75 | 248 | 0.0 | 0.0 | 0.00 | 0.00 | 0.29 | 9 | |
| 20260506090107 | 75 | 225 | 0.0 | 0.0 | 0.00 | 0.00 | 0.29 | 9 | |
| 20260506085107 | 75 | 203 | 0.0 | 0.0 | 0.00 | 0.00 | 0.29 | 9 | |
| 20260506084108 | 75 | 270 | 1.0 | 0.0 | 0.00 | 0.00 | 0.29 | 9 | |
| 20260506083107 | 75 | 270 | 0.0 | 0.0 | 0.00 | 0.00 | 0.29 | 9 | |
| 20260506082107 | 75 | 248 | 0.0 | 0.0 | 0.00 | 0.00 | 0.29 | 9 | |
| 20260506081108 | 75 | 203 | 0.0 | 0.0 | 0.00 | 0.00 | 0.29 | 9 | |
| 20260506080108 | 75 | 315 | 2.0 | 0.0 | 0.00 | 0.00 | 0.29 | 9 | |
| 20260506073108 | 75 | 270 | 2.0 | 0.0 | 0.00 | 0.00 | 0.29 | 9 | |
| 20260506072107 | 75 | 270 | 1.0 | 0.0 | 0.00 | 0.00 | 0.29 | 9 | |
| 20260506071107 | 75 | 225 | 3.0 | 0.0 | 0.00 | 0.00 | 0.29 | 9 | |
| 20260506070108 | 75 | 270 | 1.0 | 0.0 | 0.00 | 0.00 | 0.29 | 9 | |
| 20260506062106 | 75 | 270 | 1.0 | 0.0 | 0.00 | 0.00 | 0.29 | 9 | |
| 20260506061107 | 75 | 270 | 2.0 | 0.0 | 0.00 | 0.00 | 0.29 | 9 | |
| 20260506060108 | 75 | 248 | 3.0 | 0.0 | 0.00 | 0.00 | 0.29 | 9 | |
| 20260506051107 | 75 | 293 | 1.0 | 0.0 | 0.00 | 0.00 | 0.29 | 9 | |
| 20260506050107 | 75 | 293 | 1.0 | 0.0 | 0.00 | 0.00 | 0.29 | 9 | |
| 20260506045107 | 75 | 270 | 2.0 | 0.0 | 0.00 | 0.00 | 0.29 | 9 | |
| 20260506044108 | 75 | 270 | 1.0 | 0.0 | 0.00 | 0.00 | 0.29 | 9 | |
| 20260506043107 | 76 | 270 | 1.0 | 0.0 | 0.00 | 0.00 | 0.29 | 9 | |
| 20260506042108 | 76 | 248 | 0.0 | 0.0 | 0.00 | 0.00 | 0.29 | 9 | |
| 20260506041107 | 76 | 270 | 0.0 | 0.0 | 0.00 | 0.00 | 0.29 | 9 | |
| 20260506040107 | 76 | 293 | 2.0 | 0.0 | 0.00 | 0.00 | 0.29 | 9 | |
| 20260506035108 | 76 | 270 | 1.0 | 0.0 | 0.00 | 0.00 | 0.29 | 9 | |
| 20260506034108 | 76 | 248 | 1.0 | 0.0 | 0.00 | 0.00 | 0.29 | 8 | |
| 20260506033108 | 76 | 270 | 2.0 | 0.0 | 0.00 | 0.00 | 0.29 | 8 | |
| 20260506032106 | 77 | 270 | 2.0 | 0.0 | 0.00 | 0.00 | 0.29 | 8 | |
| 20260506031107 | 77 | 270 | 1.0 | 0.0 | 0.00 | 0.00 | 0.29 | 8 | |
| 20260506025107 | 77 | 270 | 1.0 | 0.0 | 0.00 | 0.00 | 0.29 | 8 | |
| 20260506024109 | 77 | 248 | 0.0 | 0.0 | 0.00 | 0.00 | 0.29 | 8 | |
| 20260506023108 | 77 | 270 | 0.0 | 0.0 | 0.00 | 0.00 | 0.29 | 8 | |
| 20260506022108 | 78 | 248 | 0.0 | 0.0 | 0.00 | 0.00 | 0.29 | 8 | |
| 20260506021107 | 78 | 248 | 0.0 | 0.0 | 0.00 | 0.00 | 0.29 | 8 | |
| 20260506020107 | 78 | 270 | 1.0 | 0.0 | 0.00 | 0.00 | 0.29 | 8 |